Retour au catalogue

USA 329

ActifMilitaireVLEO
NORAD 52890·PAYLOAD·🇺🇸 United States

Lancé Jun 19, 2022 depuis Cape Canaveral Space Force Station

Loading…

Prochains Passages (prochaines 24 heures)

TLE

PériméSource: Mike McCants

Époque: Nov 11, 2024, 17:15 UTC

1 52890U 22064C   24316.71940197 0.00000160  00000-0  88312-5 0    09
2 52890  53.0125 209.4844 0005879  20.4589 339.5410 15.13426190    07

Suivez USA 329 en temps réel avec AllMySat

Download on the App Store